"Pseudo-MPEC" for C076EZ5

Created 2021 Jun 20 18:07:10 UT using Find_Orb

Click here for an explanation of pseudo-MPECs

 
 Astrometry: 
     C076EZ5  C2021 05 20sT$lYtf8W,?-aM#$/GWP_Z$Astrometry1S*MS!=iNKn@^h`wEGpV00
     C076EZ5  C2021 05 20,.C0f,WC\qW:(dD/y-NQUH6C/gCV]OZ9*gK'#B^JI3A9(jD^84[!V00
     C076EZ5  C2021 05 20!Xredacted;18.OM!3:L:qnS5rVR+wnxY8C=*WS`31q%s!Ru4FG)V00
     C076EZ5  C2021 05 206Shl_tC-rEot*M'j:8a?2La+r.hj$$xmJ]AGkm#jcQNjX^qZ#]v)V00
     C076EZ5 KC2021 05 22.37124 21 23 21.66 +04 59 20.5    ~5MAq 21.7 GVNEOCP291
     C076EZ5 |C2021 05 22x[,IFe'D2Q(SRMV==-lafdE7D#Nu,L0b2Z/QaScm5pybKUZh=*]j807
     C076EZ5 |C2021 05 22Oti,mNN/:bl$L/K;J$QZ8sw#Zb-.Q90I`8Rp,:hxnbi0hnhsNlKD807
     C076EZ5 |C2021 05 22J+,W98J#;1;m'G.ILbpN*dW8v#=@MH*;r/r4@g'!h5JBBclick*f807
     C076EZ5 KC2021 05 22.39723 21 23 21.11 +04 59 17.0    ~5MAq 21.7 GVNEOCP291
     C076EZ5 KC2021 05 22.42321 21 23 20.53 +04 59 13.3    ~5MAq 21.8 GVNEOCP291
     C076EZ5 KC2021 05 23.43461 21 22 58.66 +04 56 55.2    ~5NBb 21.8 RoNEOCP291
     C076EZ5 KC2021 05 23.44946 21 22 58.35 +04 56 53.6    ~5NBb       oNEOCP291
     C076EZ5 KC2021 05 29.39572 21 20 32.29 +04 41 31.2    ~5TAq 20.9 RoNEOCP291
     C076EZ5 KC2021 05 29.41041 21 20 31.86 +04 41 28.7    ~5TAq 21.4 RoNEOCP291
     C076EZ5 DC2021 05 29JhPfEBbI_\Pa=5V5D(#o+?]tCjfdV6-`WR\sUA0,\MAl?t@]i%'y695
     C076EZ5 DC2021 05 29yaj?KF0XageC:t?JZUQUHHtvhW@m3GFg.6,37pFx71uR_nV@JbOL695
     C076EZ5 DC2021 05 290JHx[hEIikjQ\vesGhere1K^v6[oGUs/+E?/GqDjpmYa71w4Pp5a695
     C076EZ5 KC2021 05 30.36528 21 20 05.55 +04 38 42.3    ~5UAb 21.7 RoNEOCP291
     C076EZ5 KC2021 05 30.37911 21 20 05.19 +04 38 40.1    ~5UAb       oNEOCP291
     C076EZ5 KC2021 05 31.35902 21 19 37.30 +04 35 43.9    ~5VBM 22.2 RoNEOCP291
     C076EZ5 KC2021 05 31.40506 21 19 36.00 +04 35 35.3    ~5VBM 22.0 RoNEOCP291
     C076EZ5 KC2021 06 01.35974 21 19 08.03 +04 32 38.2    ~61Ab 21.1 RoNEOCP291
     C076EZ5 KC2021 06 01.37165 21 19 07.64 +04 32 35.2    ~61Ab 21.7 RoNEOCP291
     C076EZ5 KC2021 06 01.38370 21 19 07.31 +04 32 33.2    ~61Ab 21.5 RoNEOCP291
     C076EZ5 KC2021 06 05.36444 21 17 01.87 +04 19 12.6    ~65Ab       oNEOCP291
     C076EZ5 KC2021 06 05.37483 21 17 01.55 +04 19 10.7    ~65Ab 20.9 RoNEOCP291
     C076EZ5 KC2021 06 05.38522 21 17 01.18 +04 19 08.4    ~65Ab 21.2 RoNEOCP291
     C076EZ5 KC2021 06 06.23706021 16 32.47 +04 16 05.4    ~66Dq 20.7 GXNEOCPY00
     C076EZ5 KC2021 06 06.25050921 16 31.98 +04 16 02.6    ~66Dq 20.7 GXNEOCPY00
     C076EZ5 KC2021 06 06.26394121 16 31.51 +04 15 59.5    ~66Dq 20.9 GXNEOCPY00
     C076EZ5 KC2021 06 07.41601 21 15 51.66 +04 11 40.9    ~67Aq 21.0 RoNEOCP291
     C076EZ5 KC2021 06 07.42499 21 15 51.34 +04 11 38.6    ~67Aq 21.1 RoNEOCP291
     C076EZ5 KC2021 06 07.43397 21 15 51.02 +04 11 36.6    ~67Aq       oNEOCP291
     C076EZ5 KC2021 06 08.40094 21 15 16.66 +04 07 55.3    ~68Cb 21.1 RoNEOCP691
     C076EZ5 KC2021 06 08.41184 21 15 16.21 +04 07 51.0    ~68Cb 20.6 RoNEOCP691
     C076EZ5 KC2021 06 08.42274 21 15 15.84 +04 07 48.9    ~68Cb 20.7 RoNEOCP691
     C076EZ5 KC2021 06 09.39163 21 14 40.52 +04 03 59.2    ~69Ab       oNEOCP691
     C076EZ5 KC2021 06 09.40563 21 14 40.00 +04 03 55.7    ~69Ab 21.8 RoNEOCP691
     C076EZ5 KC2021 06 09.41964 21 14 39.49 +04 03 53.0    ~69Ab 21.5 RoNEOCP691
     C076EZ5 KC2021 06 10.37509 21 14 03.79 +03 59 59.9    ~6AAb 21.4 GVNEOCP291
     C076EZ5 KC2021 06 10.38408 21 14 03.45 +03 59 57.4    ~6AAb 21.9 GVNEOCP291
     C076EZ5 KC2021 06 10.39307 21 14 03.11 +03 59 55.3    ~6AAb 21.6 GVNEOCP291
     C076EZ5 KC2021 06 11.39350 21 13 24.86 +03 55 44.7    ~6BB7 21.4 GVNEOCP291
     C076EZ5 KC2021 06 11.40408 21 13 24.44 +03 55 42.0    ~6BB7 21.4 GVNEOCP291
     C076EZ5 KC2021 06 11.41463 21 13 24.03 +03 55 39.0    ~6BB7       VNEOCP291
     C076EZ5 KC2021 06 12.35966 21 12 47.06 +03 51 36.4    ~6C9b       oNEOCP691
     C076EZ5 KC2021 06 12.37313 21 12 46.53 +03 51 32.9    ~6C9b 21.1 RoNEOCP691
     C076EZ5 |C2021 06 12us7v0LE1(@gc9v0d@Zh4u%ysmOC(j?V[o@-:Q5XKVud,+('`boN7H06
     C076EZ5 |C2021 06 12NMdvV.X'4[vThj+XHVhCtu(BKp0ywtO-\.-=vB9+e]jw+!e(u`eRH06
     C076EZ5  C2021 06 13b-J3XZg//=k$$/U!`f`PcEQN('5mYQT]efRvMHmrMq'(L^forB8xF51
     C076EZ5  C2021 06 13r!C$*%+?LJ'!5msAiFD6sqbS48uM6G(4K290+fNVG*E:#g^$1Nw\F51
     C076EZ5  C2021 06 136QiKjReZnkmb!xN*.O4TCkA'o,VlBFD1qhO#Hn^=_Q%;)-E8\3F%F51
     C076EZ5  C2021 06 13$AaNMq@o=Zi`cl/WPLq[Qf?^e1txWyVx`*%W%NOw.^Kdm\osS*JsF51
     C076EZ5 KC2021 06 14.39755 21 11 24.59 +03 42 30.3    ~6EAq 21.5 RoNEOCP691
     C076EZ5 KC2021 06 14.40301 21 11 24.31 +03 42 28.9    ~6EAq 21.2 RoNEOCP691
     C076EZ5 KC2021 06 14.40848 21 11 24.11 +03 42 26.9    ~6EAq 21.4 RoNEOCP691
     C076EZ5 KC2021 06 17.36538 21 09 17.97 +03 28 21.1    ~6H9q 21.2 GVNEOCP291
     C076EZ5 KC2021 06 17.37435 21 09 17.56 +03 28 19.0    ~6H9q 21.8 GVNEOCP291
     C076EZ5 KC2021 06 18.31873 21 08 35.67 +03 23 35.1    ~6I9b 21.1 RoNEOCP691
     C076EZ5 KC2021 06 18.32735 21 08 35.27 +03 23 31.5    ~6I9b 21.1 RoNEOCP691
     C076EZ5 KC2021 06 18.33597 21 08 34.98 +03 23 29.7    ~6I9b 20.7 RoNEOCP691
     C076EZ5  C2021 06 18Ib^466E5GCPexplanation+a0P6b8.F=MmBf-Lj'P,?dBV01W-;bF51
     C076EZ5  C2021 06 180#M:m5-V5J)\$%H2+lm[R2FNB09y=Ub'Xiv%$)[9-u2wwx)CkdO#F51
     C076EZ5  C2021 06 18d#tylq;s)*I/bRDU:=*:'$C$o.SLrVLGM9xuf(Z6kBBix\,(Gd@DF51
     C076EZ5  C2021 06 18hiRvp%,BYs2x_:Xu_TrNR.55K6SEZAigq_l$[L7^EI\*=nZHR+!:F51

Station data:
(291) LPL/Spacewatch II  (N31.961669 W111.599905)  US/Arizona.  Observers J.
   V. Scotti, R. S. McMillan. 1.8-m f/2.7 reflector + CCD.
(691) Steward Observatory, Kitt Peak - Spacewatch  (N31.962174 W111.600327)
   US/Arizona.  Observer J. V. Scotti. 0.9-m f/3 reflector + CCD.
(695) Kitt Peak  (N31.958398 W111.594670)  US/Arizona.
(807) Cerro Tololo Observatory, La Serena  (S30.169136 W70.805900)  Chile.
(F51) Pan-STARRS 1, Haleakala  (N20.707235 W156.255910)  US/Hawaii.
   Observers N. Primak, A. Schultz, S. Watters, J. Thiel, T. Goggia. Measurer
   PS1 Science Consortium. 1.8-m Ritchey-Chrétien + CCD.
(H06) RAS Observatory, Mayhill  (N32.903325 W105.528700)  US/New
   Mexico.  Observers E. Guido, G. Sostero, V. Gonano, L. Donato.
(V00) Kitt Peak-Bok  (N31.963127 W111.600190)  US/Arizona.
(Y00) SONEAR Observatory, Oliveira  (S20.715082 W44.784960)  Brazil.
   Observers C. Jacques, E. Pimentel, J. Barros. Measurer C. Jacques. 0.28-m
   f/2.2 astrograph + CCD.

Orbital elements:  C076EZ5
   Perihelion 2022 Jan 27.737333 +/- 4.36345 TT = 17:41:45 (JD 2459607.237333)
Epoch 2021 Jun 18.0 TT = JDT 2459383.5   Ju: 0.0937           AutoNEOCP
M 359.94117178 +/- 0.0964107        (J2000 ecliptic)
n   0.00026293 +/- 0.000291456      Peri.  181.18042 +/- 0.5601786
a 241.307746 +/- 186.128            Node   114.50363 +/- 0.0460324
e   0.9782700 +/- 0.0163558         Incl.  134.69263 +/- 0.0833981
P3748.49                   H 13.9   G  0.15   U  7.3  
q 5.24360175 +/- 0.00856959    Q 477.371890 +/- 83.3165
From 65 observations 2021 May 20-June 18; mean residual 0".31
Residuals in arcseconds: 
210520 V00  .29+  .12-    210601 291  .69-  .23-    210611 291  .18+  .41-    
210520 V00  .09+  .29-    210601 291  .19-  .04+    210612 691  .05-  .30+    
210520 V00  .49+  .55-    210605 291  .04-  .03-    210612 691  .09+  .30+    
210520 V00  .29+  .11-    210605 291  .42+  .29+    210612 H06  .01+  .11-    
210522 291  .18+  .10+    210605 291  .14+  .20+    210612 H06  .13-  .08-    
210522 807  .01+  .63-    210606 Y00  .22+  .06+    210613 F51  .21+  .45-    
210522 807  .22-  .37-    210606 Y00  .13-  .21+    210613 F51  .02-  .62-    
210522 807  .28-  .05+    210606 Y00  .18-  .05+    210613 F51  .19+  .35-    
210522 291  .31+  .07+    210607 291  .01-  .10+    210613 F51  .19+  .20-    
210522 291  .02+  .16-    210607 291  .00   .16-    210614 691  .10+  .28+    
210523 291  .22-  .05-    210607 291  .01+  .12-    210614 691  .66-  .39+    
210523 291  .15+  .41+    210608 691  .41+  1.3+    210614 691  .22-  .11-    
210529 291  .18+  .05+    210608 691  .36-  .48-    210617 291  .19+  .09-    
210529 291  .19-  .06+    210608 691  .07+  .04-    210617 291  .03+  .47+    
210529 695  .23+  .07-    210609 691  .02+  .17-    210618 691  .03+  .28+    
210529 695  .19-  .14-    210609 691  .09+  .31-    210618 691  .12-  .70-    
210529 695  .14+  .01-    210609 691  .31+  .36+    210618 691  1.4+  .12+    
210530 291  .45-  .03+    210610 291  .17-  .08+    210618 F51  .12-  .32-    
210530 291  .03+  .27+    210610 291  .11-  .21-    210618 F51  .29-  .31-    
210531 291  .78-  .36+    210610 291  .04-  .09-    210618 F51  .38-  .24-    
210531 291  .05-  .16+    210611 291  .18+  .07-    210618 F51  .26-  .42-    
210601 291  .23-  .53+    210611 291  .11+  .08-    

Ephemerides (geocentric):
Date (UTC) HH   RA              Dec         delta   r     elong  mag " sig PA
---- -- -- --  -------------   -----------  ------ ------ -----  --- ---- ---
2021 06 20 18  21 06 44.153   +03 10 54.87  4.8245 5.4927 126.7 21.6 .200  86
2021 06 20 19  21 06 42.199   +03 10 41.45  4.8238 5.4927 126.8 21.6 .203  86
2021 06 20 20  21 06 40.244   +03 10 28.01  4.8231 5.4926 126.8 21.6 .206  86
2021 06 20 21  21 06 38.287   +03 10 14.56  4.8225 5.4925 126.9 21.6 .209  86
2021 06 20 22  21 06 36.329   +03 10 01.10  4.8218 5.4924 126.9 21.6 .212  86
2021 06 20 23  21 06 34.370   +03 09 47.62  4.8211 5.4923 126.9 21.6 .215  86
2021 06 21 00  21 06 32.408   +03 09 34.13  4.8205 5.4922 127.0 21.6 .218  86
2021 06 21 01  21 06 30.446   +03 09 20.63  4.8198 5.4921 127.0 21.6 .221  86
2021 06 21 02  21 06 28.482   +03 09 07.11  4.8191 5.4920 127.1 21.6 .224  85
2021 06 21 03  21 06 26.516   +03 08 53.58  4.8185 5.4919 127.1 21.6 .227  85
2021 06 21 04  21 06 24.550   +03 08 40.04  4.8178 5.4918 127.2 21.6 .230  85
2021 06 21 05  21 06 22.581   +03 08 26.49  4.8172 5.4917 127.2 21.6 .233  85
2021 06 21 06  21 06 20.611   +03 08 12.92  4.8165 5.4917 127.3 21.6 .236  85
